Simultaneous Nadir Overpasses (SNOs) Predictions

Prediction of SNOs between GOES-17 and TERRA Satellite Orbit:

Table of predicted SNOs for the next 14.0 days since TLE Epoch: 5/30/2020
Index Date Time (GOES-17) GOES-17 Lat,Lon TERRA Lat,Lon Distance(km) Time Diff (sec)
1 05/30/2020 07:36:56 -0.01,-137.20 0.18,-136.35 96.15 80
2 05/30/2020 19:55:31 0.01,-137.20 0.94,-141.50 490.08 80
3 06/01/2020 07:24:44 -0.01,-137.19 0.79,-133.39 431.79 80
4 06/01/2020 19:43:19 0.01,-137.19 0.32,-138.54 154.56 80
5 06/03/2020 19:33:47 0.01,-137.17 -0.30,-135.58 180.41 80
6 06/04/2020 07:55:12 -0.01,-137.17 -0.76,-140.78 410.63 80
7 06/06/2020 07:43:00 -0.00,-137.14 -0.13,-137.82 76.77 80
8 06/08/2020 07:28:08 0.00,-137.12 0.50,-134.86 256.60 80
9 06/08/2020 19:49:22 -0.00,-137.11 0.61,-140.02 330.38 80
10 06/10/2020 19:39:50 -0.00,-137.08 -0.02,-137.06 2.87 80
11 06/12/2020 19:27:39 -0.00,-137.04 -0.65,-134.10 335.62 80




NCC Satellite Simultaneous Nadir Overpasses (SNOs) Prediction Service
